Location: Montreal
(45.5000°N, 73.5833°W)
Time: 10:58:33
(UTC-04:00)

Envisat - Pass Details

Date: 12 October 2017
Orbit: 764 x 766 km, 98.2° (Epoch: 18 October)

Event Time Altitude Azimuth Distance (km) Brightness Sun altitude
Exits shadow 19:53:45 34° 95° (E) 1,252 3.5 -18.3°
Maximum altitude 19:54:48 38° 68° (ENE) 1,168 3.5 -18.5°
Drops below altitude 10° 19:59:27 10° 1° (N) 2,312 5.6 -19.3°
Sets 20:01:54 0° 354° (N) 3,243 6.4 -19.7°
